Location: Kershaw
(34.5481°N, 80.5823°W)
Time: 07:49:28
(UTC+00:00)

Explorer 7 - Pass Details

Date: 07 October 2022
Orbit: 481 x 665 km, 50.3° (Epoch: 28 November)

Event Time Altitude Azimuth Distance (km) Brightness Sun altitude
Rises 18:08:31 0° 315° (NW) 2,992 10.4 47.5°
Reaches altitude 10° 18:12:10 10° 342° (NNW) 2,057 9.5 47.2°
Maximum altitude 18:14:25 13° 11° (N) 1,836 9.2 47.0°
Drops below altitude 10° 18:16:38 10° 39° (NE) 2,017 9.4 46.8°
Sets 18:20:08 0° 67° (ENE) 2,882 10.2 46.5°
